Giornalieri;Bard_Albard;Bard_Albard;Bard_Albard;Bard_Albard;Bard_Albard;Bard_Albard;Bard_Albard;Bard_Albard;
>=75% dati validi;Temp_med_�C;Temp_min_�C;Temp_max_�C;Umid_med_%;Umid_min_%;Umid_max_%;Prec_som_mm;Vel_Vento_med_m/s;
01/01/2019 00.00.00;5.6;2.4;15.3;60;15;77;0.0;1.6
02/01/2019 00.00.00;10.6;3.9;15.1;14;8;28;0.0;3.7
03/01/2019 00.00.00;3.8;1.9;6.0;29;22;35;0.0;1.6
04/01/2019 00.00.00;1.8;-1.0;4.6;40;32;51;0.0;1.6
05/01/2019 00.00.00;8.0;1.1;13.2;32;23;48;0.0;2.7
06/01/2019 00.00.00;11.6;9.1;13.4;27;22;32;0.0;2.2
07/01/2019 00.00.00;6.7;2.3;10.1;43;26;70;0.0;1.4
08/01/2019 00.00.00;5.4;1.3;11.5;50;19;69;0.0;3.6
09/01/2019 00.00.00;5.9;3.5;8.7;26;21;31;0.0;3.7
10/01/2019 00.00.00;3.6;1.8;6.6;27;21;31;0.0;3.3
11/01/2019 00.00.00;2.2;0.0;4.7;30;25;35;0.0;2.2
12/01/2019 00.00.00;7.0;1.6;13.3;34;25;41;0.0;2.7
13/01/2019 00.00.00;12.1;9.7;15.3;41;31;65;0.0;5.6
14/01/2019 00.00.00;10.4;8.7;13.3;32;23;71;0.2;5.0
15/01/2019 00.00.00;7.0;4.3;10.1;31;24;41;0.0;2.2
16/01/2019 00.00.00;4.8;1.8;9.4;48;33;60;0.0;1.9
17/01/2019 00.00.00;4.2;1.6;7.3;62;35;100;0.0;2.9
18/01/2019 00.00.00;5.3;2.6;7.8;38;24;84;0.0;3.3
19/01/2019 00.00.00;0.8;-0.5;2.1;88;75;100;0.0;3.6
20/01/2019 00.00.00;0.6;-0.8;3.3;71;48;87;0.0;2.3
21/01/2019 00.00.00;1.2;-2.1;4.4;57;39;73;0.0;2.5
22/01/2019 00.00.00;1.0;-1.6;4.6;53;32;75;0.0;2.5
23/01/2019 00.00.00;-2.0;-3.0;-1.1;81;54;100;0.0;1.9
24/01/2019 00.00.00;1.6;-1.2;5.9;55;29;90;0.0;3.5
25/01/2019 00.00.00;3.7;1.2;8.8;26;12;43;0.0;2.7
26/01/2019 00.00.00;6.7;1.5;12.5;35;22;68;0.0;1.6
27/01/2019 00.00.00;1.0;-1.7;4.7;76;53;100;0.0;3.2
28/01/2019 00.00.00;4.9;2.8;8.0;28;20;42;0.0;3.7
29/01/2019 00.00.00;3.6;1.4;6.6;33;21;49;0.0;2.7
30/01/2019 00.00.00;1.0;-0.7;4.8;61;30;97;0.0;2.7
31/01/2019 00.00.00;0.4;-1.2;3.0;67;31;100;0.0;3.9
01/02/2019 00.00.00;-0.5;-1.1;0.6;100;100;100;;0.3
02/02/2019 00.00.00;1.3;-0.4;3.0;93;76;100;;1.8
03/02/2019 00.00.00;5.8;1.4;9.1;53;34;100;0.0;3.2
04/02/2019 00.00.00;3.6;1.0;8.1;44;32;59;0.0;2.6
05/02/2019 00.00.00;4.9;1.2;9.2;41;29;58;0.0;2.9
06/02/2019 00.00.00;5.7;2.9;8.7;43;32;51;0.0;3.0
07/02/2019 00.00.00;4.7;2.9;7.2;46;40;53;0.0;2.1
08/02/2019 00.00.00;6.8;3.6;10.4;41;30;55;0.0;3.0
09/02/2019 00.00.00;4.9;1.5;7.9;53;42;65;0.0;2.7
10/02/2019 00.00.00;4.0;2.1;5.6;73;49;100;0.2;2.8
11/02/2019 00.00.00;6.0;2.6;8.7;37;19;76;0.0;4.4
12/02/2019 00.00.00;8.4;4.2;13.9;21;10;32;0.0;2.9
13/02/2019 00.00.00;5.6;1.9;8.0;42;20;59;0.0;2.7
14/02/2019 00.00.00;8.6;2.5;13.1;41;29;60;0.0;2.5
15/02/2019 00.00.00;10.8;7.2;14.8;40;23;62;0.0;2.6
16/02/2019 00.00.00;8.7;2.5;12.4;48;33;63;0.0;2.8
17/02/2019 00.00.00;10.1;6.9;14.1;35;24;44;0.0;3.7
18/02/2019 00.00.00;9.3;6.6;12.9;40;27;51;0.0;3.7
19/02/2019 00.00.00;7.5;4.8;9.8;51;35;62;0.0;3.2
20/02/2019 00.00.00;7.6;4.3;10.3;52;35;67;0.0;2.9
21/02/2019 00.00.00;9.9;6.7;12.0;44;32;60;0.0;3.1
22/02/2019 00.00.00;14.4;10.4;19.9;26;18;33;0.0;3.6
23/02/2019 00.00.00;6.5;3.0;12.7;60;34;75;0.0;5.1
24/02/2019 00.00.00;5.1;1.5;8.1;54;36;84;0.0;3.4
25/02/2019 00.00.00;8.6;3.3;11.8;46;38;59;0.0;3.2
26/02/2019 00.00.00;13.6;10.4;17.2;32;21;41;0.0;3.7
27/02/2019 00.00.00;14.4;11.3;18.6;28;18;36;0.0;4.0
28/02/2019 00.00.00;14.0;9.4;18.7;32;18;40;0.0;3.3
01/03/2019 00.00.00;12.9;10.0;17.5;31;18;45;0.0;3.5
02/03/2019 00.00.00;10.8;8.0;13.0;32;26;39;0.0;3.0
03/03/2019 00.00.00;10.7;8.1;13.8;38;29;49;0.0;3.6
04/03/2019 00.00.00;7.8;5.4;10.8;53;34;80;1.6;2.3
05/03/2019 00.00.00;10.5;7.7;15.6;31;17;38;0.0;2.5
06/03/2019 00.00.00;7.0;4.3;9.3;65;34;100;1.0;4.5
07/03/2019 00.00.00;7.3;5.1;11.0;91;48;100;6.0;3.5
08/03/2019 00.00.00;9.7;7.5;11.9;52;37;69;0.0;3.2
09/03/2019 00.00.00;10.4;7.6;12.8;52;38;70;0.0;4.2
10/03/2019 00.00.00;11.8;7.7;16.5;59;20;82;0.0;4.5
11/03/2019 00.00.00;8.2;4.0;13.2;31;19;62;0.2;4.0
12/03/2019 00.00.00;6.2;2.5;8.9;31;27;38;0.0;3.4
13/03/2019 00.00.00;8.4;4.1;12.6;32;18;63;0.0;3.2
14/03/2019 00.00.00;8.7;4.4;14.1;46;23;89;3.0;3.2
15/03/2019 00.00.00;13.5;8.4;17.8;43;32;67;0.2;5.1
16/03/2019 00.00.00;15.4;11.3;22.5;33;17;53;0.0;3.3
17/03/2019 00.00.00;8.3;7.2;10.2;87;38;100;2.4;4.6
18/03/2019 00.00.00;9.2;6.0;13.1;24;14;39;0.0;2.9
19/03/2019 00.00.00;6.7;2.8;10.2;41;23;69;0.0;3.8
20/03/2019 00.00.00;6.4;2.5;9.7;49;39;58;0.0;3.0
21/03/2019 00.00.00;7.8;2.6;11.7;49;39;69;0.0;2.6
22/03/2019 00.00.00;12.2;7.7;16.0;30;22;40;0.0;3.9
23/03/2019 00.00.00;14.2;10.2;17.6;28;22;35;0.0;4.2
24/03/2019 00.00.00;15.3;10.5;19.1;30;23;37;0.0;4.1
25/03/2019 00.00.00;14.7;8.1;22.1;21;11;30;0.0;4.4
26/03/2019 00.00.00;8.3;3.3;12.1;39;24;85;0.0;3.8
27/03/2019 00.00.00;8.1;4.3;11.1;41;35;49;0.0;3.8
28/03/2019 00.00.00;8.0;3.9;11.1;52;45;61;0.0;3.3
29/03/2019 00.00.00;9.6;5.0;13.5;49;38;67;0.0;3.1
30/03/2019 00.00.00;12.1;7.7;16.5;36;26;48;0.0;4.1
31/03/2019 00.00.00;13.2;8.3;17.6;29;19;38;0.0;3.9
01/04/2019 00.00.00;13.5;8.8;17.1;30;23;36;0.0;4.0
02/04/2019 00.00.00;12.0;8.7;17.2;50;35;94;1.6;3.0
03/04/2019 00.00.00;7.5;4.7;9.2;88;70;100;27.6;5.6
04/04/2019 00.00.00;5.4;3.1;8.5;85;49;100;20.6;3.7
05/04/2019 00.00.00;8.6;3.2;13.7;52;26;70;0.0;4.3
06/04/2019 00.00.00;8.9;6.4;11.1;75;58;96;7.2;4.2
07/04/2019 00.00.00;6.6;4.8;8.7;95;79;100;15.2;1.7
08/04/2019 00.00.00;11.2;6.4;17.5;58;30;94;0.0;3.0
09/04/2019 00.00.00;11.4;6.8;14.4;51;38;60;0.0;3.4
10/04/2019 00.00.00;10.6;8.3;13.9;66;41;95;;3.5
11/04/2019 00.00.00;9.1;7.6;11.5;87;67;100;;3.4
12/04/2019 00.00.00;9.5;7.4;12.0;89;73;100;;3.9
13/04/2019 00.00.00;8.3;5.9;10.0;80;69;98;0.0;4.7
14/04/2019 00.00.00;7.1;4.7;11.2;80;31;97;0.0;4.1
15/04/2019 00.00.00;9.8;5.7;13.9;57;40;85;0.2;2.7
16/04/2019 00.00.00;11.0;7.4;13.1;57;51;64;0.0;2.8
17/04/2019 00.00.00;13.1;8.2;16.8;55;44;70;0.0;3.5
18/04/2019 00.00.00;13.7;10.1;15.9;52;43;64;0.0;3.4
19/04/2019 00.00.00;13.9;11.2;16.5;54;42;67;0.0;3.1
20/04/2019 00.00.00;14.7;10.4;18.6;44;31;58;0.0;2.8
21/04/2019 00.00.00;14.7;11.0;17.3;42;33;56;0.0;2.7
22/04/2019 00.00.00;13.2;9.0;15.8;49;32;92;0.6;4.9
23/04/2019 00.00.00;9.4;7.9;11.1;97;86;100;;1.1
24/04/2019 00.00.00;10.5;9.1;12.0;95;76;100;;6.1
25/04/2019 00.00.00;10.4;8.4;12.2;86;62;100;;3.9
26/04/2019 00.00.00;11.4;6.6;16.8;72;32;100;;4.7
27/04/2019 00.00.00;13.6;9.4;17.5;41;28;50;0.0;3.3
28/04/2019 00.00.00;11.9;8.9;15.6;30;21;38;0.0;3.0
29/04/2019 00.00.00;11.6;8.1;16.2;43;25;66;0.0;3.7
30/04/2019 00.00.00;;;;;;;;
01/05/2019 00.00.00;14.6;9.0;18.0;48;38;58;0.0;3.7
02/05/2019 00.00.00;12.1;8.5;14.9;73;52;100;0.6;3.4
03/05/2019 00.00.00;11.0;8.3;15.4;75;45;100;0.6;3.4
04/05/2019 00.00.00;11.2;7.3;14.1;70;33;99;0.2;3.3
05/05/2019 00.00.00;9.9;6.7;14.5;28;22;42;0.0;2.4
06/05/2019 00.00.00;10.3;5.8;14.4;34;23;49;0.0;3.2
07/05/2019 00.00.00;10.4;6.0;13.6;51;39;72;0.0;4.8
08/05/2019 00.00.00;8.2;6.1;10.3;95;74;100;4.8;4.4
09/05/2019 00.00.00;10.6;5.0;14.3;74;46;98;0.0;2.7
10/05/2019 00.00.00;14.6;11.9;17.3;59;41;72;0.0;4.0
11/05/2019 00.00.00;13.6;11.2;18.1;60;26;91;0.0;2.8
12/05/2019 00.00.00;14.6;11.6;18.2;27;19;37;0.0;2.2
13/05/2019 00.00.00;14.2;10.4;18.0;42;29;63;0.0;4.4
14/05/2019 00.00.00;12.5;8.8;15.6;64;54;78;0.0;6.2
15/05/2019 00.00.00;9.9;5.2;14.0;62;40;89;0.4;5.2
16/05/2019 00.00.00;11.5;6.4;15.1;65;52;84;0.0;4.7
17/05/2019 00.00.00;9.5;7.7;12.4;88;67;100;7.0;2.3
18/05/2019 00.00.00;9.3;7.7;11.4;93;71;100;2.6;2.3
19/05/2019 00.00.00;10.2;8.9;12.4;96;84;100;2.8;3.3
20/05/2019 00.00.00;11.9;9.8;13.7;95;81;100;0.4;2.6
21/05/2019 00.00.00;16.7;11.8;20.0;57;40;89;0.0;3.4
22/05/2019 00.00.00;17.3;13.4;20.6;52;34;71;0.0;3.6
23/05/2019 00.00.00;16.7;12.2;20.1;63;46;83;0.0;3.7
24/05/2019 00.00.00;17.3;13.3;20.3;62;55;72;0.0;3.7
25/05/2019 00.00.00;15.1;12.8;17.9;78;62;100;0.8;2.1
26/05/2019 00.00.00;14.2;11.4;16.7;87;70;100;4.8;2.4
27/05/2019 00.00.00;13.4;11.6;16.1;90;70;100;0.4;4.4
28/05/2019 00.00.00;13.6;11.8;16.4;87;41;100;0.2;2.5
29/05/2019 00.00.00;15.6;12.0;21.3;49;27;77;0.0;2.4
30/05/2019 00.00.00;16.5;12.4;20.5;42;28;57;0.0;3.6
31/05/2019 00.00.00;15.9;11.0;19.4;63;54;71;0.0;3.7
01/06/2019 00.00.00;18.3;13.5;22.3;62;52;74;0.0;3.3
02/06/2019 00.00.00;20.7;16.2;24.0;58;50;68;0.0;3.9
03/06/2019 00.00.00;21.1;17.6;25.0;57;46;72;0.2;3.4
04/06/2019 00.00.00;21.5;17.1;25.2;57;44;66;0.0;3.5
05/06/2019 00.00.00;18.8;15.6;21.6;76;62;100;4.4;0.5
06/06/2019 00.00.00;16.7;14.1;19.6;76;60;95;1.0;3.0
07/06/2019 00.00.00;16.1;13.2;18.5;77;60;100;0.0;4.3
08/06/2019 00.00.00;19.4;15.1;22.4;59;34;79;0.2;3.2
09/06/2019 00.00.00;17.3;16.0;18.9;80;59;100;2.4;1.3
10/06/2019 00.00.00;17.0;11.7;19.7;86;68;98;8.8;2.4
11/06/2019 00.00.00;14.9;12.3;19.3;82;57;100;4.8;2.9
12/06/2019 00.00.00;16.6;13.2;21.5;73;49;95;0.8;2.5
13/06/2019 00.00.00;17.3;12.0;20.9;62;40;87;0.0;4.1
14/06/2019 00.00.00;19.7;15.0;24.7;56;35;88;0.4;2.6
15/06/2019 00.00.00;19.1;15.5;23.0;76;58;95;6.8;3.3
16/06/2019 00.00.00;20.7;16.4;24.9;49;29;59;0.0;3.4
17/06/2019 00.00.00;21.6;17.5;24.9;51;42;59;0.0;3.8
18/06/2019 00.00.00;21.0;15.3;24.9;63;50;97;2.2;3.6
19/06/2019 00.00.00;20.7;16.3;24.6;63;49;79;0.0;3.3
20/06/2019 00.00.00;19.7;17.0;23.5;72;56;94;7.6;2.2
21/06/2019 00.00.00;19.0;16.1;22.0;75;61;99;4.8;2.2
22/06/2019 00.00.00;18.0;15.6;23.1;80;62;100;1.2;2.9
23/06/2019 00.00.00;20.6;15.8;24.2;63;50;79;0.0;3.7
24/06/2019 00.00.00;22.9;17.6;25.9;63;50;74;0.0;3.6
25/06/2019 00.00.00;24.4;20.2;27.6;69;60;82;0.0;2.9
26/06/2019 00.00.00;25.9;21.7;29.4;67;54;79;0.0;2.6
27/06/2019 00.00.00;29.3;23.3;33.3;44;25;73;0.0;1.7
28/06/2019 00.00.00;29.4;25.9;32.9;37;25;62;0.0;2.7
29/06/2019 00.00.00;25.4;22.3;28.0;56;41;71;0.0;3.6
30/06/2019 00.00.00;25.2;21.0;28.4;64;56;75;0.0;3.2
01/07/2019 00.00.00;25.1;17.7;29.4;61;46;84;2.4;2.5
02/07/2019 00.00.00;22.2;17.5;27.9;60;40;81;2.0;2.6
03/07/2019 00.00.00;22.1;19.2;26.2;63;49;80;0.2;2.6
04/07/2019 00.00.00;22.1;17.1;25.5;63;58;75;0.2;3.7
05/07/2019 00.00.00;24.4;20.1;28.2;57;41;70;0.0;3.0
06/07/2019 00.00.00;24.8;19.8;28.1;57;41;80;0.0;3.8
07/07/2019 00.00.00;24.7;20.1;27.6;51;29;76;0.0;2.2
08/07/2019 00.00.00;24.1;20.7;26.6;48;36;63;0.0;2.9
09/07/2019 00.00.00;22.4;20.0;24.0;66;34;84;0.0;3.7
10/07/2019 00.00.00;21.1;17.9;23.5;78;65;98;0.0;4.1
11/07/2019 00.00.00;20.2;18.3;21.5;68;52;86;0.0;3.3
12/07/2019 00.00.00;21.3;15.9;25.3;63;51;81;0.0;3.0
13/07/2019 00.00.00;22.7;19.0;25.7;49;34;71;0.0;3.1
14/07/2019 00.00.00;20.3;15.8;23.9;59;43;98;1.8;3.7
15/07/2019 00.00.00;15.3;12.1;19.8;83;57;100;8.6;1.3
16/07/2019 00.00.00;19.7;15.0;23.5;59;46;74;0.0;3.5
17/07/2019 00.00.00;21.1;16.8;24.3;62;48;78;0.0;3.4
18/07/2019 00.00.00;21.3;17.5;23.9;64;54;72;0.0;4.0
19/07/2019 00.00.00;21.4;17.0;24.5;69;60;77;0.0;3.5
20/07/2019 00.00.00;22.7;20.2;25.3;69;56;77;0.0;3.1
21/07/2019 00.00.00;23.9;20.2;26.7;68;61;78;0.0;3.0
22/07/2019 00.00.00;24.6;20.2;28.1;61;49;70;0.0;3.2
23/07/2019 00.00.00;25.5;21.4;28.2;65;50;77;0.0;3.6
24/07/2019 00.00.00;26.5;22.1;29.5;66;56;80;0.0;2.7
25/07/2019 00.00.00;26.7;21.9;30.2;62;48;73;0.0;3.0
26/07/2019 00.00.00;25.1;17.5;29.8;59;42;96;11.8;4.0
27/07/2019 00.00.00;18.5;16.0;24.6;85;56;100;13.8;1.9
28/07/2019 00.00.00;21.0;16.2;26.2;69;37;100;0.0;2.1
29/07/2019 00.00.00;23.2;18.5;27.7;50;39;64;0.0;3.2
30/07/2019 00.00.00;24.1;19.6;26.9;60;39;73;0.0;3.3
31/07/2019 00.00.00;23.1;20.4;25.2;66;52;75;0.0;3.6
01/08/2019 00.00.00;22.4;19.0;25.9;65;44;82;;3.8
02/08/2019 00.00.00;22.0;19.4;24.1;65;36;86;;2.0
03/08/2019 00.00.00;22.7;19.5;25.6;49;30;65;;3.2
04/08/2019 00.00.00;22.2;19.1;25.0;60;49;71;;3.9
05/08/2019 00.00.00;22.8;19.6;25.3;67;54;76;;3.0
06/08/2019 00.00.00;22.9;20.7;25.6;73;62;82;;3.9
07/08/2019 00.00.00;19.4;17.6;22.5;90;73;100;;1.4
08/08/2019 00.00.00;21.2;16.4;24.9;74;61;97;;3.2
09/08/2019 00.00.00;23.0;18.3;25.8;72;63;79;;3.9
10/08/2019 00.00.00;24.5;22.2;27.1;78;66;87;;3.1
11/08/2019 00.00.00;22.8;21.1;26.7;80;58;97;;3.1
12/08/2019 00.00.00;20.0;16.9;24.7;83;54;99;;1.4
13/08/2019 00.00.00;20.6;17.3;25.2;44;34;58;0.0;1.6
14/08/2019 00.00.00;19.6;17.2;22.4;43;35;59;0.0;2.7
15/08/2019 00.00.00;18.9;15.2;21.9;64;54;74;0.0;3.1
16/08/2019 00.00.00;20.0;16.7;22.4;56;41;71;0.0;3.2
17/08/2019 00.00.00;19.7;17.2;22.4;69;59;75;0.0;2.4
18/08/2019 00.00.00;21.0;17.5;23.7;71;62;81;0.0;3.6
19/08/2019 00.00.00;21.2;18.2;23.9;79;63;97;7.0;1.7
20/08/2019 00.00.00;19.7;18.7;21.8;92;80;100;4.2;2.3
21/08/2019 00.00.00;21.4;16.3;25.2;65;51;79;0.0;2.7
22/08/2019 00.00.00;20.3;18.4;22.2;77;65;86;0.0;1.5
23/08/2019 00.00.00;19.6;17.6;22.2;81;63;93;2.2;2.5
24/08/2019 00.00.00;21.1;17.0;24.6;72;57;86;0.0;2.5
25/08/2019 00.00.00;22.1;18.4;25.2;68;55;77;0.0;3.2
26/08/2019 00.00.00;22.6;19.1;25.8;66;54;76;0.0;3.4
27/08/2019 00.00.00;22.6;19.9;25.0;70;62;77;0.0;3.1
28/08/2019 00.00.00;19.0;17.1;21.2;86;68;100;7.0;2.4
29/08/2019 00.00.00;22.4;18.6;25.9;64;52;80;0.0;3.0
30/08/2019 00.00.00;23.3;19.8;26.7;61;48;68;0.0;3.2
31/08/2019 00.00.00;21.6;18.7;25.0;68;58;82;0.0;3.2
01/09/2019 00.00.00;20.9;18.0;24.9;66;48;80;3.6;2.5
02/09/2019 00.00.00;20.8;17.6;23.6;69;52;75;0.0;3.0
03/09/2019 00.00.00;20.0;17.2;22.6;62;49;79;0.0;2.8
04/09/2019 00.00.00;18.8;16.9;21.8;71;60;80;0.0;2.6
05/09/2019 00.00.00;17.1;13.1;21.8;76;51;96;2.2;2.0
06/09/2019 00.00.00;13.3;11.7;15.6;84;69;100;13.4;1.4
07/09/2019 00.00.00;16.1;13.0;19.4;68;44;86;2.0;2.6
08/09/2019 00.00.00;13.4;10.5;16.4;74;43;100;2.6;2.1
09/09/2019 00.00.00;15.6;12.5;20.0;43;29;56;0.0;2.7
10/09/2019 00.00.00;14.3;13.4;15.9;73;55;97;1.8;1.8
11/09/2019 00.00.00;17.6;13.0;20.8;61;50;77;0.0;2.5
12/09/2019 00.00.00;19.7;15.8;22.9;56;46;63;0.0;3.0
13/09/2019 00.00.00;19.7;14.8;22.7;65;48;80;0.0;2.8
14/09/2019 00.00.00;19.9;15.6;23.2;71;59;79;0.0;3.2
15/09/2019 00.00.00;20.2;16.8;23.3;73;62;83;0.0;2.8
16/09/2019 00.00.00;20.8;16.4;24.1;72;56;86;0.0;2.2
17/09/2019 00.00.00;22.2;19.1;24.9;58;40;67;0.0;2.8
18/09/2019 00.00.00;19.7;16.6;21.9;73;60;99;2.4;3.3
19/09/2019 00.00.00;15.2;13.4;16.4;93;61;100;0.0;5.1
20/09/2019 00.00.00;14.8;13.4;16.4;72;53;81;0.0;3.8
21/09/2019 00.00.00;14.3;12.1;17.4;75;64;90;0.0;3.8
22/09/2019 00.00.00;12.9;11.7;14.4;84;72;93;0.0;3.3
23/09/2019 00.00.00;14.8;11.4;18.3;81;49;100;0.4;2.2
24/09/2019 00.00.00;15.4;13.0;18.3;58;47;75;0.0;2.3
25/09/2019 00.00.00;16.2;12.9;19.2;65;48;76;0.0;2.1
26/09/2019 00.00.00;16.8;14.5;18.6;66;45;79;0.0;2.9
27/09/2019 00.00.00;16.4;12.4;19.0;80;68;88;0.0;2.7
28/09/2019 00.00.00;17.3;13.9;20.1;74;58;85;0.0;2.6
29/09/2019 00.00.00;16.9;13.1;20.1;70;50;89;0.0;3.1
30/09/2019 00.00.00;18.1;14.4;22.2;67;49;89;0.0;2.3
01/10/2019 00.00.00;16.4;12.7;19.0;67;44;85;8.4;3.6
02/10/2019 00.00.00;18.2;14.5;24.0;47;26;70;0.0;2.2
03/10/2019 00.00.00;14.5;11.2;17.1;37;25;52;0.0;3.1
04/10/2019 00.00.00;11.7;7.9;15.0;62;50;80;0.0;2.8
05/10/2019 00.00.00;15.0;10.2;18.8;55;36;81;0.0;2.4
06/10/2019 00.00.00;13.6;10.9;15.1;68;47;100;1.4;3.4
07/10/2019 00.00.00;14.0;11.6;17.5;54;33;96;0.0;2.4
08/10/2019 00.00.00;12.4;8.3;15.4;69;47;82;0.0;2.6
09/10/2019 00.00.00;11.4;9.2;13.1;94;76;100;2.4;2.3
10/10/2019 00.00.00;13.4;10.8;16.0;59;43;88;0.0;2.5
11/10/2019 00.00.00;12.6;8.9;15.5;65;42;81;0.0;3.0
12/10/2019 00.00.00;12.5;9.8;15.3;77;62;90;0.0;2.5
13/10/2019 00.00.00;12.9;9.6;16.1;80;64;92;0.0;2.5
14/10/2019 00.00.00;14.2;12.2;16.9;74;59;87;0.0;2.8
15/10/2019 00.00.00;12.7;10.8;14.6;91;53;100;91.0;2.8
16/10/2019 00.00.00;12.8;10.4;15.9;59;37;80;0.0;2.4
17/10/2019 00.00.00;12.7;9.6;15.1;74;58;88;0.0;3.1
18/10/2019 00.00.00;12.6;11.0;13.7;92;82;100;0.0;3.1
19/10/2019 00.00.00;12.2;11.4;13.0;100;100;100;3.8;3.3
20/10/2019 00.00.00;13.3;12.7;14.4;100;100;100;25.8;5.7
21/10/2019 00.00.00;14.4;13.2;16.0;100;100;100;45.6;5.3
22/10/2019 00.00.00;15.2;14.1;16.8;100;94;100;4.6;3.1
23/10/2019 00.00.00;14.4;12.4;16.6;95;82;100;8.8;1.6
24/10/2019 00.00.00;12.2;11.6;14.0;100;96;100;33.4;1.2
25/10/2019 00.00.00;14.3;11.8;19.1;77;52;100;0.0;2.2
26/10/2019 00.00.00;14.6;11.7;18.4;70;53;88;0.0;2.7
27/10/2019 00.00.00;15.1;11.7;19.6;63;49;72;0.0;2.5
28/10/2019 00.00.00;13.8;11.3;17.0;81;65;100;0.0;1.9
29/10/2019 00.00.00;12.9;11.7;14.1;100;98;100;0.2;1.8
30/10/2019 00.00.00;11.8;9.2;14.3;96;76;100;0.2;3.2
31/10/2019 00.00.00;8.2;7.5;9.2;100;100;100;0.2;3.3
01/11/2019 00.00.00;7.9;7.6;8.2;100;99;100;0.0;2.7
02/11/2019 00.00.00;7.7;7.0;8.4;100;100;100;0.2;3.5
03/11/2019 00.00.00;8.1;7.0;10.9;94;53;100;5.4;2.2
04/11/2019 00.00.00;11.5;9.2;14.8;65;45;97;0.8;1.9
05/11/2019 00.00.00;10.3;8.5;13.7;72;52;97;0.2;2.2
06/11/2019 00.00.00;8.8;6.9;11.9;74;53;100;0.0;2.8
07/11/2019 00.00.00;5.8;3.2;8.2;83;54;100;4.8;2.1
08/11/2019 00.00.00;5.3;4.2;8.1;98;86;100;7.0;2.2
09/11/2019 00.00.00;6.4;3.2;10.5;58;33;82;0.0;2.5
10/11/2019 00.00.00;5.3;3.2;7.9;62;51;72;0.0;2.2
11/11/2019 00.00.00;4.5;3.0;6.5;77;59;100;2.2;2.1
12/11/2019 00.00.00;7.5;3.8;11.6;49;26;99;0.0;2.6
13/11/2019 00.00.00;7.7;3.7;12.8;33;21;50;0.0;2.1
14/11/2019 00.00.00;3.2;1.5;4.7;81;50;100;20.0;1.9
15/11/2019 00.00.00;4.3;3.3;5.9;100;100;100;12.8;2.1
16/11/2019 00.00.00;3.7;2.0;5.6;99;86;100;4.0;2.2
17/11/2019 00.00.00;3.4;2.0;4.6;91;70;100;7.0;1.8
18/11/2019 00.00.00;3.6;1.7;5.5;96;83;100;2.6;1.3
19/11/2019 00.00.00;3.5;1.7;5.1;99;86;100;27.0;3.3
20/11/2019 00.00.00;6.6;4.4;10.2;98;78;100;0.4;1.9
21/11/2019 00.00.00;6.3;5.4;7.6;100;95;100;4.6;2.8
22/11/2019 00.00.00;5.6;4.7;6.8;100;100;100;24.6;2.1
23/11/2019 00.00.00;6.4;5.4;7.1;100;100;100;74.8;0.8
24/11/2019 00.00.00;6.7;5.9;7.6;100;100;100;43.4;2.7
25/11/2019 00.00.00;8.8;7.2;10.8;93;80;100;3.0;3.3
26/11/2019 00.00.00;9.0;6.0;11.2;81;61;100;0.0;2.0
27/11/2019 00.00.00;7.0;5.3;10.2;95;74;100;8.2;1.6
28/11/2019 00.00.00;7.7;4.1;10.7;80;56;100;0.0;1.8
29/11/2019 00.00.00;9.5;8.0;12.8;57;44;74;0.0;2.6
30/11/2019 00.00.00;8.1;3.6;11.3;51;37;100;0.0;2.3
01/12/2019 00.00.00;3.4;1.5;5.1;100;100;100;15.4;2.3
02/12/2019 00.00.00;5.3;1.6;8.5;80;63;100;0.0;3.2
03/12/2019 00.00.00;4.5;1.9;8.1;83;59;100;0.0;2.3
04/12/2019 00.00.00;2.4;-0.9;5.5;80;61;100;0.0;2.0
05/12/2019 00.00.00;3.8;0.0;6.7;64;47;83;0.0;2.7
06/12/2019 00.00.00;2.4;-0.1;5.6;70;53;83;0.0;1.4
07/12/2019 00.00.00;5.3;1.7;8.2;59;45;70;0.0;1.7
08/12/2019 00.00.00;4.7;1.7;8.2;66;50;78;0.0;1.6
09/12/2019 00.00.00;6.8;2.9;10.6;59;34;74;0.0;1.8
10/12/2019 00.00.00;7.9;3.2;11.1;29;19;43;0.0;2.5
11/12/2019 00.00.00;2.2;0.5;3.5;60;38;86;0.0;2.4
12/12/2019 00.00.00;-0.1;-1.2;1.2;97;86;100;0.0;2.1
13/12/2019 00.00.00;1.2;-1.5;5.2;86;56;100;;1.9
14/12/2019 00.00.00;8.4;2.6;13.1;65;42;100;0.8;2.8
15/12/2019 00.00.00;5.2;2.3;11.1;80;43;97;0.0;2.2
16/12/2019 00.00.00;4.9;3.7;6.2;93;82;100;1.8;1.0
17/12/2019 00.00.00;6.3;4.7;7.1;100;100;100;17.6;2.3
18/12/2019 00.00.00;7.3;6.6;7.9;100;100;100;6.4;1.4
19/12/2019 00.00.00;7.9;7.4;8.5;100;100;100;14.4;1.7
20/12/2019 00.00.00;6.7;5.0;7.4;100;100;100;34.6;2.8
21/12/2019 00.00.00;7.5;4.7;11.4;76;48;100;0.2;2.5
22/12/2019 00.00.00;7.4;4.1;11.4;70;43;100;0.2;2.6
23/12/2019 00.00.00;8.9;6.1;10.9;44;36;71;0.0;2.1
24/12/2019 00.00.00;8.8;5.9;13.4;57;21;89;0.4;3.3
25/12/2019 00.00.00;11.4;7.9;15.7;28;18;36;0.0;2.9
26/12/2019 00.00.00;6.1;4.4;7.9;42;33;52;0.0;1.9
27/12/2019 00.00.00;8.6;6.2;10.3;56;38;81;0.0;2.5
28/12/2019 00.00.00;4.5;0.8;7.3;71;50;95;0.0;2.1
29/12/2019 00.00.00;2.5;-0.2;5.9;75;62;90;0.0;1.0
30/12/2019 00.00.00;1.0;-0.2;5.2;94;59;100;0.0;1.9
